Location: Goettingen
(51.5300°N, 9.9433°E)
Time: 00:30:45
(UTC+02:00)

ISS - Pass Details

Date: 25 April 2025
Orbit: 417 x 420 km, 51.6° (Epoch: 29 April)

Event Time Altitude Azimuth Distance (km) Brightness Sun altitude
Exits shadow 05:18:14 - 237° (WSW) 1,532 -1.6 -7.1°
Reaches altitude 10° 05:18:20 10° 237° (WSW) 1,492 -1.7 -7.1°
Maximum altitude 05:21:37 54° 159° (SSE) 516 -3.4 -6.6°
Drops below altitude 10° 05:24:54 10° 81° (E) 1,498 0.4 -6.2°
Sets 05:27:01 0° 77° (ENE) 2,363 1.8 -5.9°
